THORAD AGENA D DEB, 5958

Orbit data source: Space-Track

THORAD AGENA D DEB, 5958 is space debris in SSO originally from a launch on Wed, 08 Apr 1970 UTC launched from the Air Force Western Test Range (AFWTR). Debris objects in space refer to the collection of defunct objects orbiting the Earth. Examples of debris include non-operational satellites, rocket bodies, and fragments generated from explosions, collisions, or faulty payload assembly.

Loading next visibility...
Identifier
5958, 1970-025MP
Orbit
SSO
Country
Flag of USUS
Related business
Manufacturer
Unknown
Mission
Spacecraft
Bus & Motor
Unknown
Mass
Unknown
Launch date (UTC)
1970-04-08 (56 years ago)
Launch vehicle
Unknown
Launch site
Air Force Western Test Range (AFWTR)
Object type
Payload
Rocket body
Debris
Shape & HBR
Unknown shape, 0.1 m
Radar Cross Section
Small (<0.1 m²)

Expand to show TLE details & history
Last TLE update: 20 hours ago

TLE from 20 hours ago
0 THORAD AGENA D DEB
1 05958U 70025MP  25292.27390935  .00001128  00000-0  14517-2 0  9991
2 05958  99.4977 198.6959 0053420   7.0505 120.5652 13.64241639742353
Epoch: 2025-10-19T06:34Z
TLE epoch observation values (Epoch: 2025-10-19T06:34:25.767Z)
Latitude
50.9675°
Longitude
-96.05747°
Altitude
1,048.669 km
Speed
7.322 km/s
True Right ascension
02h 02m 10s
True Declination
50° 48' 21"
Sunlit
Object was in full shadow at epoch
Visualization orbit readout
Latitude
Unknown
Longitude
Unknown
Altitude
Unknown
Speed
Unknown
Apparent Right ascension
Unknown
Apparent Declination
Unknown
Sunlit
N/A
Visualization observer readout
Local Sidereal Time
21:38:59
Azimuth
Unknown
Elevation
Unknown
Doppler factor
Unknown
Orbital elements
Apogee altitude
1,057.097 km
Perigee altitude
978.081 km
Semi-major axis
7,395.726 km
Eccentricity
0.00534
Inclination
99.4977°
RAAN
198.6959°
Arg. of periapsis
7.0505°
True anomaly
121.0905°
Mean anomaly
120.5652°
Eccentric anomaly
120.82803°
Mean motion
3.41249 °/min
Orbital period
105.49 mins
BSTAR
0.0014517
Loading maneuver chart data...
Computing Atmospheric mass density...

Documentation

Showing up to 5 results
|